Location: Recife
(8.0585°S, 34.8848°W)
Time: 09:59:10
(UTC-03:00)

Transit 2A Rocket - Pass Details

Date: 18 April 2026
Orbit: 587 x 895 km, 66.7° (Epoch: 14 May)

Event Time Altitude Azimuth Distance (km) Brightness Sun altitude
Rises 10:25:08 0° 18° (NNE) 2,816 8.3 66.8°
Reaches altitude 10° 10:28:46 10° 50° (NE) 1,904 7.6 67.3°
Maximum altitude 10:30:20 12° 72° (ENE) 1,788 7.4 67.5°
Drops below altitude 10° 10:31:54 10° 94° (E) 1,909 7.4 67.7°
Sets 10:35:32 0° 126° (SE) 2,835 7.9 68.1°
